STARLINK-31663 (59576 NORAD) Tracking and Keplerian Element Data

This shows tracking and keplerian element data for the satellite.

Feedback or suggestion? Click here.




ElementValue
Catalog59576
NameSTARLINK-31663
Epoch Orbit830
Epoch Day160.07418842
Epoch Year2024
RAAN53.9392
Inclination43.001
Eccentricity0.0001199
Argument of Perigee285.2831
Mean Anonmoly74.7893
Mean Motion15.40699888
Decay Rate2.933E-05
L11 59576U 24076N 24160.07418842 .00002933 00000+0 77456-4 0 9997
L22 59576 43.0010 53.9392 0001199 285.2831 74.7893 15.40699888 8309



Live tracking and technical data element details for STARLINK-31663 (NORAD 59576). STARLINK-31663 can be tracked NOW for your location showing map with azimuth and elevation plus other details from your city location.







IsCatalogInMostPopularTable: catalog: 59576, numindb: 14
Update: records affected: 1



GetName: 59576 STARLINK-31663

Hit Count: updated at: Fri, 14 Jun 2024 19:25:03 GMT